START_TIME,STEP,MOV.,P11,t_acc.,P23,t_acc.,P27,t_acc.,A4,t_acc.
1980-11-16 00:00:11.700 ,3,0,1.,4.8,0.,4.8,0.,4.8,0.,4.8
1980-11-16 00:00:16.500 ,3,0,0.,4.8,0.,4.8,0.,4.8,0.,4.8
1980-11-16 00:00:21.300 ,3,0,1.,4.8,0.,4.8,0.,4.8,0.,4.8
1980-11-16 00:00:26.100 ,3,0,0.,4.8,0.,4.8,0.,4.8,0.,4.8
1980-11-16 00:00:30.900 ,3,0,1.,4.8,0.,4.8,0.,4.8,0.,4.8
1980-11-16 00:00:35.700 ,4,0,0.,4.8,0.,4.8,1.,4.8,0.,4.8
1980-11-16 00:00:40.500 ,4,0,1.,4.8,0.,4.8,0.,4.8,0.,4.8
1980-11-16 00:00:45.300 ,4,0,0.,4.8,0.,4.8,0.,4.8,0.,4.8
1980-11-16 00:00:50.100 ,4,0,1.,4.8,0.,4.8,0.,4.8,0.,4.8
1980-11-16 00:00:54.900 ,4,0,0.,4.8,0.,4.8,0.,4.8,0.,4.8
1980-11-16 00:00:59.700 ,4,0,1.,4.8,0.,4.8,0.,4.8,0.,4.8
1980-11-16 00:01:04.500 ,4,0,0.,4.8,0.,4.8,0.,4.8,0.,4.8
1980-11-16 00:01:09.300 ,4,0,2.,4.8,0.,4.8,0.,4.8,0.,4.8
1980-11-16 00:01:14.100 ,4,0,1.,4.8,0.,4.8,0.,4.8,0.,4.8
1980-11-16 00:01:18.900 ,4,0,1.,4.8,0.,4.8,0.,4.8,0.,4.8
1980-11-16 00:01:23.700 ,5,0,0.,4.8,0.,4.8,0.,4.8,0.,4.8
1980-11-16 00:01:28.500 ,5,0,0.,4.8,0.,4.8,0.,4.8,0.,4.8
1980-11-16 00:01:33.300 ,5,0,0.,4.8,0.,4.8,0.,4.8,0.,4.8
1980-11-16 00:01:38.100 ,5,0,0.,4.8,0.,4.8,0.,4.8,0.,4.8
1980-11-16 00:01:42.900 ,5,0,1.,4.8,0.,4.8,0.,4.8,0.,4.8
1980-11-16 00:01:47.700 ,5,0,0.,4.8,0.,4.8,0.,4.8,0.,4.8
1980-11-16 00:01:52.500 ,5,0,0.,4.8,0.,4.8,0.,4.8,0.,4.8
1980-11-16 00:01:57.300 ,5,0,0.,4.8,0.,4.8,0.,4.8,0.,4.8
1980-11-16 00:02:02.100 ,5,0,0.,4.8,0.,4.8,0.,4.8,0.,4.8
1980-11-16 00:02:06.900 ,5,0,0.,4.8,0.,4.8,0.,4.8,0.,4.8
1980-11-16 00:02:11.700 ,6,0,0.,4.8,0.,4.8,1.,4.8,0.,4.8
1980-11-16 00:02:16.500 ,6,0,0.,4.8,0.,4.8,0.,4.8,0.,4.8
1980-11-16 00:02:21.300 ,6,0,1.,4.8,0.,4.8,0.,4.8,0.,4.8
1980-11-16 00:02:26.100 ,6,0,0.,4.8,0.,4.8,0.,4.8,0.,4.8
1980-11-16 00:02:30.900 ,6,0,1.,4.8,0.,4.8,0.,4.8,0.,4.8
1980-11-16 00:02:35.700 ,6,0,1.,4.8,0.,4.8,0.,4.8,0.,4.8
1980-11-16 00:02:40.500 ,6,0,1.,4.8,0.,4.8,0.,4.8,0.,4.8
1980-11-16 00:02:45.300 ,6,0,1.,4.8,0.,4.8,0.,4.8,0.,4.8
1980-11-16 00:02:50.100 ,6,0,0.,4.8,0.,4.8,0.,4.8,0.,4.8
1980-11-16 00:02:54.900 ,6,0,2.,4.8,0.,4.8,0.,4.8,0.,4.8
1980-11-16 00:02:59.700 ,7,0,0.,4.8,1.,4.8,0.,4.8,0.,4.8
1980-11-16 00:03:04.500 ,7,0,0.,4.8,0.,4.8,0.,4.8,0.,4.8
1980-11-16 00:03:09.300 ,7,0,1.,4.8,0.,4.8,0.,4.8,0.,4.8
1980-11-16 00:03:14.100 ,7,0,0.,4.8,0.,4.8,0.,4.8,0.,4.8
1980-11-16 00:03:18.900 ,7,0,0.,4.8,0.,4.8,0.,4.8,0.,4.8
1980-11-16 00:03:23.700 ,7,0,0.,4.8,0.,4.8,0.,4.8,0.,4.8
1980-11-16 00:03:28.500 ,7,0,0.,4.8,0.,4.8,0.,4.8,0.,4.8
1980-11-16 00:03:33.300 ,7,0,0.,4.8,0.,4.8,0.,4.8,0.,4.8
1980-11-16 00:03:38.100 ,7,0,1.,4.8,0.,4.8,0.,4.8,0.,4.8
1980-11-16 00:03:42.900 ,7,0,0.,4.8,0.,4.8,0.,4.8,0.,4.8
1980-11-16 00:03:47.700 ,7,0,0.,4.8,0.,4.8,1.,4.8,0.,4.8
1980-11-16 00:03:52.500 ,7,0,0.,4.8,0.,4.8,0.,4.8,0.,4.8
1980-11-16 00:03:57.300 ,7,0,0.,4.8,0.,4.8,0.,4.8,0.,4.8
1980-11-16 00:04:02.100 ,7,0,1.,4.8,0.,4.8,0.,4.8,0.,4.8
1980-11-16 00:04:06.900 ,7,0,0.,4.8,0.,4.8,1.,4.8,0.,4.8
1980-11-16 00:04:11.700 ,7,0,0.,4.8,0.,4.8,0.,4.8,0.,4.8
1980-11-16 00:04:16.500 ,7,0,0.,4.8,0.,4.8,0.,4.8,0.,4.8
1980-11-16 00:04:21.300 ,7,0,0.,4.8,0.,4.8,0.,4.8,0.,4.8
1980-11-16 00:04:26.100 ,7,0,0.,4.8,0.,4.8,1.,4.8,0.,4.8
1980-11-16 00:04:30.900 ,7,0,0.,4.8,0.,4.8,1.,4.8,0.,4.8
1980-11-16 00:04:35.700 ,6,0,1.,4.8,0.,4.8,0.,4.8,0.,4.8
1980-11-16 00:04:40.500 ,6,0,0.,4.8,0.,4.8,0.,4.8,0.,4.8
1980-11-16 00:04:45.300 ,6,0,0.,4.8,0.,4.8,0.,4.8,0.,4.8
1980-11-16 00:04:50.100 ,6,0,0.,4.8,0.,4.8,0.,4.8,0.,4.8
1980-11-16 00:04:54.900 ,6,0,3.,4.8,0.,4.8,0.,4.8,0.,4.8
1980-11-16 00:04:59.700 ,6,0,0.,4.8,0.,4.8,0.,4.8,0.,4.8
1980-11-16 00:05:04.500 ,6,0,0.,4.8,0.,4.8,0.,4.8,0.,4.8
1980-11-16 00:05:09.300 ,6,0,1.,4.8,0.,4.8,1.,4.8,0.,4.8
1980-11-16 00:05:14.100 ,6,0,0.,4.8,0.,4.8,0.,4.8,0.,4.8
1980-11-16 00:05:18.900 ,6,0,0.,4.8,0.,4.8,0.,4.8,0.,4.8
1980-11-16 00:05:23.700 ,5,0,0.,4.8,0.,4.8,0.,4.8,0.,4.8
1980-11-16 00:05:28.500 ,5,0,2.,4.8,0.,4.8,0.,4.8,0.,4.8
1980-11-16 00:05:33.300 ,5,0,0.,4.8,0.,4.8,0.,4.8,0.,4.8
1980-11-16 00:05:38.100 ,5,0,1.,4.8,0.,4.8,0.,4.8,0.,4.8
1980-11-16 00:05:42.900 ,5,0,0.,4.8,0.,4.8,0.,4.8,0.,4.8
1980-11-16 00:05:47.700 ,5,0,0.,4.8,0.,4.8,0.,4.8,0.,4.8
1980-11-16 00:05:52.500 ,5,0,0.,4.8,0.,4.8,0.,4.8,0.,4.8
1980-11-16 00:05:57.300 ,5,0,0.,4.8,0.,4.8,0.,4.8,0.,4.8
1980-11-16 00:06:02.100 ,5,0,0.,4.8,0.,4.8,0.,4.8,0.,4.8
1980-11-16 00:06:06.900 ,5,0,0.,4.8,0.,4.8,0.,4.8,0.,4.8
1980-11-16 00:06:11.700 ,0,0,1.,4.8,0.,4.8,0.,4.8,0.,4.8
1980-11-16 00:06:16.500 ,0,0,1.,4.8,0.,4.8,0.,4.8,0.,4.8
1980-11-16 00:06:21.300 ,0,0,0.,4.8,0.,4.8,0.,4.8,0.,4.8
1980-11-16 00:06:26.100 ,0,0,0.,4.8,0.,4.8,0.,4.8,0.,4.8
1980-11-16 00:06:30.900 ,0,0,2.,4.8,0.,4.8,1.,4.8,0.,4.8
1980-11-16 00:06:59.700 ,3,0,1.,4.8,0.,4.8,0.,4.8,0.,4.8
1980-11-16 00:07:04.500 ,3,0,0.,4.8,0.,4.8,0.,4.8,0.,4.8
1980-11-16 00:07:09.300 ,3,0,0.,4.8,0.,4.8,0.,4.8,0.,4.8
1980-11-16 00:07:14.100 ,3,0,1.,4.8,0.,4.8,0.,4.8,0.,4.8
1980-11-16 00:07:18.900 ,3,0,0.,4.8,0.,4.8,0.,4.8,0.,4.8
1980-11-16 00:07:23.700 ,3,0,0.,4.8,0.,4.8,0.,4.8,0.,4.8
1980-11-16 00:07:28.500 ,3,0,0.,4.8,0.,4.8,0.,4.8,0.,4.8
1980-11-16 00:07:33.300 ,3,0,0.,4.8,0.,4.8,0.,4.8,0.,4.8
1980-11-16 00:07:38.100 ,3,0,0.,4.8,0.,4.8,1.,4.8,0.,4.8
1980-11-16 00:07:42.900 ,3,0,1.,4.8,0.,4.8,0.,4.8,0.,4.8
1980-11-16 00:07:47.700 ,2,0,1.,4.8,0.,4.8,0.,4.8,0.,4.8
1980-11-16 00:07:52.500 ,2,0,2.,4.8,0.,4.8,1.,4.8,0.,4.8
1980-11-16 00:07:57.300 ,2,0,2.,4.8,0.,4.8,0.,4.8,0.,4.8
1980-11-16 00:08:02.100 ,2,0,0.,4.8,0.,4.8,0.,4.8,0.,4.8
1980-11-16 00:08:06.900 ,2,0,0.,4.8,0.,4.8,0.,4.8,0.,4.8
1980-11-16 00:08:11.700 ,2,0,1.,4.8,0.,4.8,0.,4.8,0.,4.8
1980-11-16 00:08:16.500 ,2,0,0.,4.8,0.,4.8,0.,4.8,0.,4.8
1980-11-16 00:08:21.300 ,2,0,0.,4.8,1.,4.8,0.,4.8,0.,4.8
1980-11-16 00:08:26.100 ,2,0,1.,4.8,0.,4.8,0.,4.8,0.,4.8
1980-11-16 00:08:30.900 ,2,0,0.,4.8,0.,4.8,1.,4.8,0.,4.8
1980-11-16 00:08:35.700 ,1,0,0.,4.8,0.,4.8,0.,4.8,0.,4.8
1980-11-16 00:08:40.500 ,1,0,1.,4.8,0.,4.8,0.,4.8,0.,4.8
1980-11-16 00:08:45.300 ,1,0,0.,4.8,0.,4.8,0.,4.8,0.,4.8
1980-11-16 00:08:50.100 ,1,0,0.,4.8,0.,4.8,0.,4.8,0.,4.8
1980-11-16 00:08:54.900 ,1,0,0.,4.8,0.,4.8,0.,4.8,0.,4.8
1980-11-16 00:08:59.700 ,1,0,0.,4.8,0.,4.8,0.,4.8,0.,4.8
1980-11-16 00:09:04.500 ,1,0,0.,4.8,0.,4.8,0.,4.8,0.,4.8
1980-11-16 00:09:09.300 ,1,0,1.,4.8,0.,4.8,0.,4.8,0.,4.8
1980-11-16 00:09:14.100 ,1,0,0.,4.8,0.,4.8,0.,4.8,0.,4.8
1980-11-16 00:09:18.900 ,1,0,1.,4.8,1.,4.8,0.,4.8,0.,4.8
1980-11-16 00:09:23.700 ,0,0,0.,4.8,0.,4.8,0.,4.8,0.,4.8
1980-11-16 00:09:28.500 ,0,0,0.,4.8,0.,4.8,0.,4.8,0.,4.8
1980-11-16 00:09:33.300 ,0,0,0.,4.8,0.,4.8,0.,4.8,0.,4.8
1980-11-16 00:09:38.100 ,0,0,0.,4.8,1.,4.8,0.,4.8,0.,4.8
1980-11-16 00:09:42.900 ,0,0,0.,4.8,0.,4.8,0.,4.8,0.,4.8
1980-11-16 00:09:47.700 ,0,0,1.,4.8,0.,4.8,0.,4.8,0.,4.8
1980-11-16 00:09:52.500 ,0,0,0.,4.8,0.,4.8,0.,4.8,0.,4.8
1980-11-16 00:09:57.300 ,0,0,0.,4.8,0.,4.8,0.,4.8,0.,4.8
1980-11-16 00:10:02.100 ,0,0,0.,4.8,0.,4.8,0.,4.8,0.,4.8
1980-11-16 00:10:06.900 ,0,0,0.,4.8,0.,4.8,0.,4.8,0.,4.8
1980-11-16 00:10:11.700 ,0,0,1.,4.8,0.,4.8,0.,4.8,0.,4.8
1980-11-16 00:10:16.500 ,0,0,0.,4.8,0.,4.8,0.,4.8,0.,4.8
1980-11-16 00:10:21.300 ,0,0,0.,4.8,0.,4.8,0.,4.8,0.,4.8
1980-11-16 00:10:26.100 ,0,0,0.,4.8,0.,4.8,0.,4.8,0.,4.8
1980-11-16 00:10:30.900 ,0,0,0.,4.8,0.,4.8,0.,4.8,0.,4.8
1980-11-16 00:10:35.700 ,0,0,0.,4.8,0.,4.8,0.,4.8,0.,4.8
1980-11-16 00:10:40.500 ,0,0,0.,4.8,0.,4.8,0.,4.8,0.,4.8
1980-11-16 00:10:45.300 ,0,0,0.,4.8,0.,4.8,0.,4.8,0.,4.8
1980-11-16 00:10:50.100 ,0,0,2.,4.8,0.,4.8,1.,4.8,0.,4.8
1980-11-16 00:10:54.900 ,0,0,0.,4.8,0.,4.8,0.,4.8,0.,4.8
1980-11-16 00:10:59.700 ,1,0,0.,4.8,0.,4.8,0.,4.8,0.,4.8
1980-11-16 00:11:04.500 ,1,0,0.,4.8,0.,4.8,0.,4.8,0.,4.8
1980-11-16 00:11:09.300 ,1,0,1.,4.8,0.,4.8,1.,4.8,0.,4.8
1980-11-16 00:11:14.100 ,1,0,0.,4.8,0.,4.8,0.,4.8,0.,4.8
1980-11-16 00:11:18.900 ,1,0,0.,4.8,0.,4.8,0.,4.8,0.,4.8
1980-11-16 00:11:23.700 ,1,0,0.,4.8,0.,4.8,0.,4.8,0.,4.8
1980-11-16 00:11:28.500 ,1,0,0.,4.8,0.,4.8,0.,4.8,0.,4.8
1980-11-16 00:11:33.300 ,1,0,0.,4.8,0.,4.8,0.,4.8,0.,4.8
1980-11-16 00:11:38.100 ,1,0,0.,4.8,0.,4.8,0.,4.8,0.,4.8
1980-11-16 00:11:42.900 ,1,0,0.,4.8,0.,4.8,1.,4.8,0.,4.8
1980-11-16 00:11:47.700 ,2,0,0.,4.8,0.,4.8,0.,4.8,0.,4.8
1980-11-16 00:11:52.500 ,2,0,0.,4.8,0.,4.8,0.,4.8,0.,4.8
1980-11-16 00:11:57.300 ,2,0,1.,4.8,0.,4.8,0.,4.8,0.,4.8
1980-11-16 00:12:02.100 ,2,0,0.,4.8,0.,4.8,2.,4.8,0.,4.8
1980-11-16 00:12:06.900 ,2,0,1.,4.8,0.,4.8,0.,4.8,0.,4.8
1980-11-16 00:12:11.700 ,2,0,0.,4.8,0.,4.8,0.,4.8,0.,4.8
1980-11-16 00:12:16.500 ,2,0,0.,4.8,0.,4.8,0.,4.8,0.,4.8
1980-11-16 00:12:21.300 ,2,0,1.,4.8,0.,4.8,0.,4.8,0.,4.8
1980-11-16 00:12:26.100 ,2,0,0.,4.8,0.,4.8,0.,4.8,0.,4.8
1980-11-16 00:12:30.900 ,2,0,1.,4.8,0.,4.8,0.,4.8,0.,4.8
1980-11-16 00:12:35.700 ,3,0,0.,4.8,0.,4.8,0.,4.8,0.,4.8
1980-11-16 00:12:40.500 ,3,0,0.,4.8,0.,4.8,0.,4.8,0.,4.8
1980-11-16 00:12:45.300 ,3,0,1.,4.8,0.,4.8,0.,4.8,0.,4.8
1980-11-16 00:12:50.100 ,3,0,0.,4.8,0.,4.8,1.,4.8,0.,4.8
1980-11-16 00:12:54.900 ,3,0,0.,4.8,0.,4.8,0.,4.8,0.,4.8
1980-11-16 00:12:59.700 ,3,0,0.,4.8,0.,4.8,0.,4.8,0.,4.8
1980-11-16 00:13:04.500 ,3,0,2.,4.8,0.,4.8,0.,4.8,0.,4.8
1980-11-16 00:13:09.300 ,3,0,0.,4.8,0.,4.8,0.,4.8,0.,4.8
1980-11-16 00:13:14.100 ,3,0,0.,4.8,1.,4.8,0.,4.8,0.,4.8
1980-11-16 00:13:18.900 ,3,0,1.,4.8,0.,4.8,0.,4.8,0.,4.8
1980-11-16 00:13:23.700 ,4,0,0.,4.8,0.,4.8,0.,4.8,0.,4.8
1980-11-16 00:13:28.500 ,4,0,0.,4.8,0.,4.8,0.,4.8,0.,4.8
1980-11-16 00:13:33.300 ,4,0,0.,4.8,0.,4.8,0.,4.8,0.,4.8
1980-11-16 00:13:38.100 ,4,0,0.,4.8,0.,4.8,0.,4.8,0.,4.8
1980-11-16 00:13:42.900 ,4,0,0.,4.8,0.,4.8,0.,4.8,0.,4.8
1980-11-16 00:13:47.700 ,4,0,0.,4.8,0.,4.8,0.,4.8,0.,4.8
1980-11-16 00:13:52.500 ,4,0,1.,4.8,0.,4.8,0.,4.8,0.,4.8
1980-11-16 00:13:57.300 ,4,0,0.,4.8,0.,4.8,0.,4.8,0.,4.8
1980-11-16 00:14:02.100 ,4,0,0.,4.8,0.,4.8,0.,4.8,0.,4.8
1980-11-16 00:14:06.900 ,4,0,0.,4.8,0.,4.8,1.,4.8,0.,4.8
1980-11-16 00:14:11.700 ,5,0,0.,4.8,0.,4.8,0.,4.8,0.,4.8
1980-11-16 00:14:16.500 ,5,0,1.,4.8,0.,4.8,0.,4.8,0.,4.8
1980-11-16 00:14:21.300 ,5,0,0.,4.8,0.,4.8,0.,4.8,0.,4.8
1980-11-16 00:14:26.100 ,5,0,0.,4.8,0.,4.8,0.,4.8,0.,4.8
1980-11-16 00:14:30.900 ,5,0,0.,4.8,0.,4.8,0.,4.8,0.,4.8
1980-11-16 00:14:35.700 ,5,0,1.,4.8,0.,4.8,0.,4.8,0.,4.8
1980-11-16 00:14:40.500 ,5,0,1.,4.8,0.,4.8,1.,4.8,0.,4.8
1980-11-16 00:14:45.300 ,5,0,0.,4.8,0.,4.8,0.,4.8,0.,4.8
1980-11-16 00:14:50.100 ,5,0,2.,4.8,0.,4.8,0.,4.8,0.,4.8
1980-11-16 00:14:54.900 ,5,0,0.,4.8,0.,4.8,0.,4.8,0.,4.8
1980-11-16 00:14:59.700 ,6,0,0.,4.8,0.,4.8,0.,4.8,1.,4.8
1980-11-16 00:15:04.500 ,6,0,2.,4.8,0.,4.8,0.,4.8,0.,4.8
1980-11-16 00:15:09.300 ,6,0,0.,4.8,0.,4.8,0.,4.8,0.,4.8
1980-11-16 00:15:14.100 ,6,0,1.,4.8,0.,4.8,0.,4.8,0.,4.8
1980-11-16 00:15:18.900 ,6,0,0.,4.8,0.,4.8,0.,4.8,0.,4.8
1980-11-16 00:15:23.700 ,6,0,0.,4.8,0.,4.8,0.,4.8,0.,4.8
1980-11-16 00:15:28.500 ,6,0,0.,4.8,0.,4.8,0.,4.8,0.,4.8
1980-11-16 00:15:33.300 ,6,0,0.,4.8,0.,4.8,0.,4.8,0.,4.8
1980-11-16 00:15:38.100 ,6,0,0.,4.8,1.,4.8,0.,4.8,0.,4.8
1980-11-16 00:15:42.900 ,6,0,1.,4.8,0.,4.8,0.,4.8,0.,4.8
1980-11-16 00:15:47.700 ,7,0,0.,4.8,0.,4.8,0.,4.8,0.,4.8
1980-11-16 00:15:52.500 ,7,0,0.,4.8,0.,4.8,0.,4.8,0.,4.8
1980-11-16 00:15:57.300 ,7,0,2.,4.8,0.,4.8,0.,4.8,0.,4.8
1980-11-16 00:16:02.100 ,7,0,1.,4.8,0.,4.8,0.,4.8,0.,4.8
1980-11-16 00:16:06.900 ,7,0,1.,4.8,0.,4.8,0.,4.8,0.,4.8
1980-11-16 00:16:11.700 ,7,0,1.,4.8,0.,4.8,0.,4.8,0.,4.8
1980-11-16 00:16:16.500 ,7,0,0.,4.8,0.,4.8,0.,4.8,0.,4.8
1980-11-16 00:16:21.300 ,7,0,1.,4.8,0.,4.8,0.,4.8,0.,4.8
1980-11-16 00:16:26.100 ,7,0,0.,4.8,0.,4.8,0.,4.8,0.,4.8
1980-11-16 00:16:30.900 ,7,0,1.,4.8,0.,4.8,0.,4.8,0.,4.8
1980-11-16 00:16:35.700 ,7,0,0.,4.8,0.,4.8,0.,4.8,0.,4.8
1980-11-16 00:16:40.500 ,7,0,1.,4.8,0.,4.8,0.,4.8,0.,4.8
1980-11-16 00:16:45.300 ,7,0,0.,4.8,0.,4.8,0.,4.8,0.,4.8
1980-11-16 00:16:50.100 ,7,0,0.,4.8,0.,4.8,0.,4.8,0.,4.8
1980-11-16 00:16:54.900 ,7,0,0.,4.8,0.,4.8,0.,4.8,0.,4.8
1980-11-16 00:16:59.700 ,7,0,0.,4.8,0.,4.8,0.,4.8,0.,4.8
1980-11-16 00:17:04.500 ,7,0,0.,4.8,0.,4.8,0.,4.8,0.,4.8
1980-11-16 00:17:09.300 ,7,0,0.,4.8,0.,4.8,0.,4.8,0.,4.8
1980-11-16 00:17:14.100 ,7,0,0.,4.8,0.,4.8,0.,4.8,0.,4.8
1980-11-16 00:17:18.900 ,7,0,0.,4.8,0.,4.8,0.,4.8,0.,4.8
1980-11-16 00:17:23.700 ,6,0,2.,4.8,0.,4.8,0.,4.8,0.,4.8
1980-11-16 00:17:28.500 ,6,0,0.,4.8,0.,4.8,0.,4.8,0.,4.8
1980-11-16 00:17:33.300 ,6,0,0.,4.8,0.,4.8,0.,4.8,0.,4.8
1980-11-16 00:17:38.100 ,6,0,0.,4.8,1.,4.8,0.,4.8,0.,4.8
1980-11-16 00:17:42.900 ,6,0,0.,4.8,0.,4.8,0.,4.8,0.,4.8
1980-11-16 00:17:47.700 ,6,0,1.,4.8,1.,4.8,0.,4.8,0.,4.8
1980-11-16 00:17:52.500 ,6,0,0.,4.8,0.,4.8,0.,4.8,0.,4.8
1980-11-16 00:17:57.300 ,6,0,2.,4.8,0.,4.8,0.,4.8,0.,4.8
1980-11-16 00:18:02.100 ,6,0,0.,4.8,0.,4.8,0.,4.8,0.,4.8
1980-11-16 00:18:06.900 ,6,0,0.,4.8,0.,4.8,0.,4.8,0.,4.8
1980-11-16 00:18:11.700 ,5,0,0.,4.8,0.,4.8,0.,4.8,0.,4.8
1980-11-16 00:18:16.500 ,5,0,1.,4.8,0.,4.8,0.,4.8,0.,4.8
1980-11-16 00:18:21.300 ,5,0,0.,4.8,0.,4.8,0.,4.8,0.,4.8
1980-11-16 00:18:26.100 ,5,0,1.,4.8,0.,4.8,1.,4.8,0.,4.8
1980-11-16 00:18:30.900 ,5,0,1.,4.8,0.,4.8,0.,4.8,0.,4.8
1980-11-16 00:18:35.700 ,5,0,2.,4.8,0.,4.8,0.,4.8,0.,4.8
1980-11-16 00:18:40.500 ,5,0,0.,4.8,0.,4.8,0.,4.8,0.,4.8
1980-11-16 00:18:45.300 ,5,0,0.,4.8,0.,4.8,0.,4.8,0.,4.8
1980-11-16 00:18:50.100 ,5,0,0.,4.8,0.,4.8,0.,4.8,0.,4.8
1980-11-16 00:18:54.900 ,5,0,0.,4.8,0.,4.8,0.,4.8,0.,4.8
1980-11-16 00:18:59.700 ,4,0,0.,4.8,0.,4.8,0.,4.8,0.,4.8
1980-11-16 00:19:04.500 ,4,0,1.,4.8,0.,4.8,0.,4.8,0.,4.8
1980-11-16 00:19:09.300 ,4,0,0.,4.8,0.,4.8,0.,4.8,0.,4.8
1980-11-16 00:19:14.100 ,4,0,0.,4.8,0.,4.8,0.,4.8,0.,4.8
1980-11-16 00:19:18.900 ,4,0,0.,4.8,0.,4.8,0.,4.8,0.,4.8
1980-11-16 00:19:23.700 ,4,0,0.,4.8,0.,4.8,0.,4.8,0.,4.8
1980-11-16 00:19:28.500 ,4,0,1.,4.8,0.,4.8,1.,4.8,0.,4.8
1980-11-16 00:19:33.300 ,4,0,0.,4.8,0.,4.8,0.,4.8,0.,4.8
1980-11-16 00:19:38.100 ,4,0,0.,4.8,0.,4.8,0.,4.8,0.,4.8
1980-11-16 00:19:42.900 ,4,0,0.,4.8,0.,4.8,0.,4.8,0.,4.8
1980-11-16 00:19:47.700 ,3,0,0.,4.8,0.,4.8,0.,4.8,0.,4.8
1980-11-16 00:19:52.500 ,3,0,1.,4.8,0.,4.8,0.,4.8,0.,4.8
1980-11-16 00:19:57.300 ,3,0,0.,4.8,0.,4.8,0.,4.8,0.,4.8
1980-11-16 00:20:02.100 ,3,0,0.,4.8,0.,4.8,0.,4.8,0.,4.8
1980-11-16 00:20:06.900 ,3,0,0.,4.8,0.,4.8,0.,4.8,0.,4.8
1980-11-16 00:20:11.700 ,3,0,1.,4.8,0.,4.8,1.,4.8,0.,4.8
1980-11-16 00:20:16.500 ,3,0,0.,4.8,0.,4.8,0.,4.8,0.,4.8
1980-11-16 00:20:21.300 ,3,0,0.,4.8,0.,4.8,0.,4.8,0.,4.8
1980-11-16 00:20:26.100 ,3,0,1.,4.8,0.,4.8,0.,4.8,0.,4.8
1980-11-16 00:20:30.900 ,3,0,0.,4.8,0.,4.8,0.,4.8,0.,4.8
1980-11-16 00:20:35.700 ,2,0,0.,4.8,1.,4.8,0.,4.8,0.,4.8
1980-11-16 00:20:40.500 ,2,0,1.,4.8,0.,4.8,0.,4.8,0.,4.8
1980-11-16 00:20:45.300 ,2,0,1.,4.8,1.,4.8,0.,4.8,0.,4.8
1980-11-16 00:20:50.100 ,2,0,0.,4.8,0.,4.8,0.,4.8,0.,4.8
1980-11-16 00:20:54.900 ,2,0,1.,4.8,0.,4.8,0.,4.8,0.,4.8
1980-11-16 00:20:59.700 ,2,0,0.,4.8,0.,4.8,0.,4.8,0.,4.8
1980-11-16 00:21:04.500 ,2,0,0.,4.8,0.,4.8,0.,4.8,0.,4.8
1980-11-16 00:21:09.300 ,2,0,1.,4.8,0.,4.8,0.,4.8,0.,4.8
1980-11-16 00:21:14.100 ,2,0,0.,4.8,0.,4.8,1.,4.8,0.,4.8
1980-11-16 00:21:18.900 ,2,0,0.,4.8,0.,4.8,1.,4.8,0.,4.8
1980-11-16 00:21:23.700 ,1,0,0.,4.8,0.,4.8,0.,4.8,0.,4.8
1980-11-16 00:21:28.500 ,1,0,1.,4.8,0.,4.8,0.,4.8,0.,4.8
1980-11-16 00:21:33.300 ,1,0,0.,4.8,0.,4.8,0.,4.8,0.,4.8
1980-11-16 00:21:38.100 ,1,0,0.,4.8,0.,4.8,0.,4.8,0.,4.8
1980-11-16 00:21:42.900 ,1,0,1.,4.8,0.,4.8,0.,4.8,0.,4.8
1980-11-16 00:21:47.700 ,1,0,0.,4.8,0.,4.8,0.,4.8,0.,4.8
1980-11-16 00:21:52.500 ,1,0,0.,4.8,0.,4.8,0.,4.8,0.,4.8
1980-11-16 00:21:57.300 ,1,0,1.,4.8,0.,4.8,0.,4.8,0.,4.8
1980-11-16 00:22:02.100 ,1,0,0.,4.8,0.,4.8,0.,4.8,0.,4.8
1980-11-16 00:22:06.900 ,1,0,0.,4.8,0.,4.8,0.,4.8,0.,4.8
1980-11-16 00:22:11.700 ,0,0,0.,4.8,0.,4.8,0.,4.8,0.,4.8
1980-11-16 00:22:16.500 ,0,0,0.,4.8,0.,4.8,0.,4.8,0.,4.8
1980-11-16 00:22:21.300 ,0,0,0.,4.8,0.,4.8,0.,4.8,0.,4.8
1980-11-16 00:22:26.100 ,0,0,0.,4.8,0.,4.8,0.,4.8,0.,4.8
1980-11-16 00:22:30.900 ,0,0,1.,4.8,0.,4.8,1.,4.8,0.,4.8
1980-11-16 00:22:35.700 ,0,0,0.,4.8,0.,4.8,0.,4.8,0.,4.8
1980-11-16 00:22:40.500 ,0,0,1.,4.8,0.,4.8,0.,4.8,0.,4.8
1980-11-16 00:22:45.300 ,0,0,1.,4.8,0.,4.8,0.,4.8,0.,4.8
1980-11-16 00:22:50.100 ,0,0,1.,4.8,0.,4.8,0.,4.8,0.,4.8
1980-11-16 00:22:54.900 ,0,0,0.,4.8,0.,4.8,0.,4.8,0.,4.8
1980-11-16 00:22:59.700 ,0,0,1.,4.8,1.,4.8,0.,4.8,0.,4.8
1980-11-16 00:23:04.500 ,0,0,0.,4.8,0.,4.8,0.,4.8,0.,4.8
1980-11-16 00:23:09.300 ,0,0,0.,4.8,1.,4.8,0.,4.8,0.,4.8
1980-11-16 00:23:14.100 ,0,0,0.,4.8,0.,4.8,0.,4.8,0.,4.8
1980-11-16 00:23:18.900 ,0,0,1.,4.8,0.,4.8,0.,4.8,0.,4.8
1980-11-16 00:23:23.700 ,0,0,1.,4.8,0.,4.8,0.,4.8,0.,4.8
1980-11-16 00:23:28.500 ,0,0,0.,4.8,0.,4.8,0.,4.8,0.,4.8
1980-11-16 00:23:33.300 ,0,0,0.,4.8,1.,4.8,0.,4.8,0.,4.8
1980-11-16 00:23:38.100 ,0,0,0.,4.8,0.,4.8,0.,4.8,0.,4.8
1980-11-16 00:23:42.900 ,0,0,0.,4.8,0.,4.8,0.,4.8,0.,4.8
1980-11-16 00:23:47.700 ,1,0,0.,4.8,0.,4.8,0.,4.8,0.,4.8
1980-11-16 00:23:52.500 ,1,0,1.,4.8,0.,4.8,0.,4.8,0.,4.8
1980-11-16 00:23:57.300 ,1,0,0.,4.8,0.,4.8,0.,4.8,0.,4.8
1980-11-16 00:24:02.100 ,1,0,0.,4.8,0.,4.8,0.,4.8,0.,4.8
1980-11-16 00:24:06.900 ,1,0,0.,4.8,0.,4.8,0.,4.8,0.,4.8
1980-11-16 00:24:11.700 ,1,0,1.,4.8,0.,4.8,0.,4.8,0.,4.8
1980-11-16 00:24:16.500 ,1,0,1.,4.8,0.,4.8,0.,4.8,0.,4.8
1980-11-16 00:24:21.300 ,1,0,0.,4.8,0.,4.8,1.,4.8,0.,4.8
1980-11-16 00:24:26.100 ,1,0,0.,4.8,0.,4.8,0.,4.8,0.,4.8
1980-11-16 00:24:30.900 ,1,0,0.,4.8,0.,4.8,0.,4.8,0.,4.8
1980-11-16 00:24:35.700 ,2,0,0.,4.8,0.,4.8,0.,4.8,0.,4.8
1980-11-16 00:24:40.500 ,2,0,0.,4.8,0.,4.8,0.,4.8,0.,4.8
1980-11-16 00:24:45.300 ,2,0,1.,4.8,0.,4.8,0.,4.8,0.,4.8
1980-11-16 00:24:50.100 ,2,0,0.,4.8,0.,4.8,0.,4.8,0.,4.8
1980-11-16 00:24:54.900 ,2,0,0.,4.8,0.,4.8,0.,4.8,0.,4.8
1980-11-16 00:24:59.700 ,2,0,1.,4.8,0.,4.8,0.,4.8,0.,4.8
1980-11-16 00:25:04.500 ,2,0,1.,4.8,0.,4.8,0.,4.8,0.,4.8
1980-11-16 00:25:09.300 ,2,0,0.,4.8,0.,4.8,0.,4.8,0.,4.8
1980-11-16 00:25:14.100 ,2,0,0.,4.8,0.,4.8,0.,4.8,0.,4.8
1980-11-16 00:25:18.900 ,2,0,0.,4.8,0.,4.8,0.,4.8,0.,4.8
1980-11-16 00:25:23.700 ,3,0,0.,4.8,0.,4.8,0.,4.8,0.,4.8
1980-11-16 00:25:28.500 ,3,0,0.,4.8,0.,4.8,0.,4.8,0.,4.8
1980-11-16 00:25:33.300 ,3,0,0.,4.8,0.,4.8,0.,4.8,0.,4.8
1980-11-16 00:25:38.100 ,3,0,0.,4.8,0.,4.8,0.,4.8,0.,4.8
1980-11-16 00:25:42.900 ,3,0,0.,4.8,0.,4.8,0.,4.8,0.,4.8
1980-11-16 00:25:47.700 ,3,0,0.,4.8,0.,4.8,0.,4.8,0.,4.8
1980-11-16 00:25:52.500 ,3,0,1.,4.8,0.,4.8,1.,4.8,0.,4.8
1980-11-16 00:25:57.300 ,3,0,1.,4.8,0.,4.8,0.,4.8,0.,4.8
1980-11-16 00:26:02.100 ,3,0,0.,4.8,0.,4.8,0.,4.8,0.,4.8
1980-11-16 00:26:06.900 ,3,0,0.,4.8,0.,4.8,0.,4.8,0.,4.8
1980-11-16 00:26:11.700 ,4,0,0.,4.8,0.,4.8,0.,4.8,0.,4.8
1980-11-16 00:26:16.500 ,4,0,1.,4.8,0.,4.8,0.,4.8,0.,4.8
1980-11-16 00:26:21.300 ,4,0,0.,4.8,0.,4.8,0.,4.8,0.,4.8
1980-11-16 00:26:26.100 ,4,0,1.,4.8,0.,4.8,0.,4.8,0.,4.8
1980-11-16 00:26:30.900 ,4,0,0.,4.8,0.,4.8,0.,4.8,0.,4.8
1980-11-16 00:26:35.700 ,4,0,1.,4.8,0.,4.8,0.,4.8,0.,4.8
1980-11-16 00:26:40.500 ,4,0,0.,4.8,0.,4.8,0.,4.8,0.,4.8
1980-11-16 00:26:45.300 ,4,0,1.,4.8,0.,4.8,0.,4.8,0.,4.8
1980-11-16 00:26:50.100 ,4,0,0.,4.8,0.,4.8,0.,4.8,0.,4.8
1980-11-16 00:26:54.900 ,4,0,0.,4.8,0.,4.8,0.,4.8,0.,4.8
1980-11-16 00:26:59.700 ,5,0,0.,4.8,0.,4.8,0.,4.8,0.,4.8
1980-11-16 00:27:04.500 ,5,0,0.,4.8,0.,4.8,0.,4.8,0.,4.8
1980-11-16 00:27:09.300 ,5,0,1.,4.8,1.,4.8,0.,4.8,0.,4.8
1980-11-16 00:27:14.100 ,5,0,1.,4.8,0.,4.8,0.,4.8,0.,4.8
1980-11-16 00:27:18.900 ,5,0,0.,4.8,0.,4.8,0.,4.8,0.,4.8
1980-11-16 00:27:23.700 ,5,0,0.,4.8,0.,4.8,0.,4.8,0.,4.8
1980-11-16 00:27:28.500 ,5,0,0.,4.8,0.,4.8,0.,4.8,0.,4.8
1980-11-16 00:27:33.300 ,5,0,1.,4.8,0.,4.8,0.,4.8,0.,4.8
1980-11-16 00:27:38.100 ,5,0,1.,4.8,0.,4.8,0.,4.8,0.,4.8
1980-11-16 00:27:42.900 ,5,0,1.,4.8,0.,4.8,0.,4.8,0.,4.8
1980-11-16 00:27:47.700 ,6,0,0.,4.8,0.,4.8,0.,4.8,0.,4.8
1980-11-16 00:27:52.500 ,6,0,0.,4.8,0.,4.8,0.,4.8,0.,4.8
1980-11-16 00:27:57.300 ,6,0,0.,4.8,0.,4.8,0.,4.8,0.,4.8
1980-11-16 00:28:02.100 ,6,0,0.,4.8,0.,4.8,0.,4.8,0.,4.8
1980-11-16 00:28:06.900 ,6,0,1.,4.8,0.,4.8,0.,4.8,0.,4.8
1980-11-16 00:28:11.700 ,6,0,0.,4.8,0.,4.8,0.,4.8,0.,4.8
1980-11-16 00:28:16.500 ,6,0,0.,4.8,0.,4.8,0.,4.8,0.,4.8
1980-11-16 00:28:21.300 ,6,0,0.,4.8,0.,4.8,0.,4.8,0.,4.8
1980-11-16 00:28:26.100 ,6,0,0.,4.8,0.,4.8,0.,4.8,0.,4.8
1980-11-16 00:28:30.900 ,6,0,0.,4.8,0.,4.8,0.,4.8,0.,4.8
1980-11-16 00:28:35.700 ,7,0,0.,4.8,0.,4.8,0.,4.8,0.,4.8
1980-11-16 00:28:40.500 ,7,0,1.,4.8,0.,4.8,0.,4.8,0.,4.8
1980-11-16 00:28:45.300 ,7,0,1.,4.8,0.,4.8,0.,4.8,0.,4.8
1980-11-16 00:28:50.100 ,7,0,1.,4.8,0.,4.8,0.,4.8,0.,4.8
1980-11-16 00:28:54.900 ,7,0,1.,4.8,0.,4.8,0.,4.8,0.,4.8
1980-11-16 00:28:59.700 ,7,0,0.,4.8,0.,4.8,0.,4.8,0.,4.8
1980-11-16 00:29:04.500 ,7,0,0.,4.8,0.,4.8,0.,4.8,0.,4.8
1980-11-16 00:29:09.300 ,7,0,0.,4.8,0.,4.8,0.,4.8,0.,4.8
1980-11-16 00:29:14.100 ,7,0,0.,4.8,0.,4.8,0.,4.8,0.,4.8
1980-11-16 00:29:18.900 ,7,0,1.,4.8,0.,4.8,0.,4.8,0.,4.8
1980-11-16 00:29:23.700 ,7,0,0.,4.8,0.,4.8,0.,4.8,0.,4.8
1980-11-16 00:29:28.500 ,7,0,0.,4.8,0.,4.8,0.,4.8,0.,4.8
1980-11-16 00:29:33.300 ,7,0,0.,4.8,0.,4.8,0.,4.8,0.,4.8
1980-11-16 00:29:38.100 ,7,0,1.,4.8,0.,4.8,0.,4.8,0.,4.8
1980-11-16 00:29:42.900 ,7,0,0.,4.8,0.,4.8,0.,4.8,0.,4.8
1980-11-16 00:29:47.700 ,7,0,1.,4.8,0.,4.8,0.,4.8,0.,4.8
1980-11-16 00:29:52.500 ,7,0,0.,4.8,0.,4.8,1.,4.8,0.,4.8
1980-11-16 00:29:57.300 ,7,0,1.,4.8,0.,4.8,0.,4.8,0.,4.8
1980-11-16 00:30:02.100 ,7,0,0.,4.8,0.,4.8,0.,4.8,0.,4.8
1980-11-16 00:30:06.900 ,7,0,0.,4.8,0.,4.8,0.,4.8,0.,4.8
1980-11-16 00:30:11.700 ,6,0,0.,4.8,0.,4.8,0.,4.8,0.,4.8
1980-11-16 00:30:16.500 ,6,0,0.,4.8,0.,4.8,0.,4.8,0.,4.8
1980-11-16 00:30:21.300 ,6,0,0.,4.8,0.,4.8,0.,4.8,0.,4.8
1980-11-16 00:30:26.100 ,6,0,0.,4.8,0.,4.8,0.,4.8,0.,4.8
1980-11-16 00:30:30.900 ,6,0,0.,4.8,0.,4.8,0.,4.8,0.,4.8
1980-11-16 00:30:35.700 ,6,0,0.,4.8,0.,4.8,0.,4.8,0.,4.8
1980-11-16 00:30:40.500 ,6,0,0.,4.8,0.,4.8,0.,4.8,0.,4.8
1980-11-16 00:30:45.300 ,6,0,0.,4.8,0.,4.8,0.,4.8,0.,4.8
1980-11-16 00:30:50.100 ,6,0,0.,4.8,0.,4.8,0.,4.8,0.,4.8
1980-11-16 00:30:54.900 ,6,0,0.,4.8,0.,4.8,1.,4.8,0.,4.8
1980-11-16 00:30:59.700 ,5,0,1.,4.8,0.,4.8,0.,4.8,0.,4.8
1980-11-16 00:31:04.500 ,5,0,0.,4.8,0.,4.8,0.,4.8,0.,4.8
1980-11-16 00:31:09.300 ,5,0,0.,4.8,0.,4.8,0.,4.8,0.,4.8
1980-11-16 00:31:14.100 ,5,0,0.,4.8,0.,4.8,0.,4.8,0.,4.8
1980-11-16 00:31:18.900 ,5,0,0.,4.8,0.,4.8,0.,4.8,0.,4.8
1980-11-16 00:31:23.700 ,5,0,0.,4.8,0.,4.8,0.,4.8,0.,4.8
1980-11-16 00:31:28.500 ,5,0,0.,4.8,0.,4.8,0.,4.8,0.,4.8
1980-11-16 00:31:33.300 ,5,0,0.,4.8,0.,4.8,0.,4.8,0.,4.8
1980-11-16 00:31:38.100 ,5,0,1.,4.8,0.,4.8,0.,4.8,0.,4.8
1980-11-16 00:31:42.900 ,5,0,0.,4.8,0.,4.8,0.,4.8,0.,4.8
1980-11-16 00:31:47.700 ,4,0,2.,4.8,0.,4.8,0.,4.8,0.,4.8
1980-11-16 00:31:52.500 ,4,0,0.,4.8,0.,4.8,0.,4.8,0.,4.8
1980-11-16 00:31:57.300 ,4,0,0.,4.8,0.,4.8,0.,4.8,0.,4.8
1980-11-16 00:32:02.100 ,4,0,1.,4.8,0.,4.8,0.,4.8,0.,4.8
1980-11-16 00:32:06.900 ,4,0,0.,4.8,0.,4.8,0.,4.8,0.,4.8
1980-11-16 00:32:11.700 ,4,0,0.,4.8,0.,4.8,0.,4.8,0.,4.8
1980-11-16 00:32:16.500 ,4,0,1.,4.8,0.,4.8,0.,4.8,0.,4.8
1980-11-16 00:32:21.300 ,4,0,0.,4.8,0.,4.8,0.,4.8,0.,4.8
1980-11-16 00:32:26.100 ,4,0,0.,4.8,0.,4.8,0.,4.8,0.,4.8
1980-11-16 00:32:30.900 ,4,0,0.,4.8,0.,4.8,0.,4.8,0.,4.8
1980-11-16 00:32:35.700 ,3,0,0.,4.8,0.,4.8,2.,4.8,0.,4.8
1980-11-16 00:32:40.500 ,3,0,0.,4.8,0.,4.8,0.,4.8,0.,4.8
1980-11-16 00:32:45.300 ,3,0,0.,4.8,0.,4.8,0.,4.8,0.,4.8
1980-11-16 00:32:50.100 ,3,0,0.,4.8,0.,4.8,0.,4.8,0.,4.8
1980-11-16 00:32:54.900 ,3,0,1.,4.8,0.,4.8,1.,4.8,0.,4.8
1980-11-16 00:32:59.700 ,3,0,0.,4.8,0.,4.8,0.,4.8,0.,4.8
1980-11-16 00:33:04.500 ,3,0,0.,4.8,1.,4.8,0.,4.8,0.,4.8
1980-11-16 00:33:09.300 ,3,0,0.,4.8,0.,4.8,0.,4.8,0.,4.8
1980-11-16 00:33:14.100 ,3,0,2.,4.8,0.,4.8,0.,4.8,0.,4.8
1980-11-16 00:33:18.900 ,3,0,0.,4.8,0.,4.8,0.,4.8,0.,4.8
1980-11-16 00:33:23.700 ,2,0,0.,4.8,0.,4.8,1.,4.8,0.,4.8
1980-11-16 00:33:28.500 ,2,0,1.,4.8,0.,4.8,0.,4.8,0.,4.8